Starlink 32329

operational
NORAD ID: 62736 Int'l Des: 2025-014 Owner: SPXS Country: US Constellation: starlink
LEOCIRCULAR

Über Starlink 32329

Beschreibung wird geladen...

Live-Position

3D-Globus wird geladen...

Nächste Überflüge

Höhenverlauf

Altitude vs Time

uPlot chart will show altitude changes over time

Zweizeiliger Elementsatz

1 62736U 25014B 25304.65212841 .00029111 00000-0 10628-2 0 9992
2 62736 43.0016 163.0480 0000180 341.0079 19.0765 15.27594409 43523
Epoch: 31. Okt. 2025 • Age: 12 hours

Aktueller Status

Höhe 489.6 km
Geschwindigkeit 7.62 km/s
Subsatellitenpunkt -26.16°S, 82.78°W
Startdatum 21. Jan. 2025
Alter 0.7 years
Typ internet

Technische Details

Klassifizierung Payload
Masse 730.00 kg
Trockenmasse 700.00 kg
Gesamtmasse 730.00 kg
Länge 0.30 m
Durchmesser 4.10 m
Spannweite 29.00 m
Form Box + pan
Hersteller SPXS
Bus-Typ Starlink V2M
Phasenstatus In Orbit
Besitzer/Staat SPXS/US

Große Konstellationen

Loading constellations...